Simultaneous Nadir Overpasses (SNOs) Predictions

Prediction of SNOs between AQUA and METOP-B Satellite Orbit:

Table of predicted SNOs for the next 14.0 days since TLE Epoch: 11/29/2019
Index Date (AQUA) Time (AQUA) Lat,Lon (AQUA) SZA (AQUA ) Date (METOP-B) Time (METOP-B) Lat,Lon (METOP-B) SZA (METOP-B ) Distance(km) Time Diff (sec)
1 11/30/2019 02:25:44 73.77, 137.86 95.27 11/30/2019 02:25:03 73.75, 137.79 95.25 3.15 41
2 11/30/2019 03:15:11 -73.85, -54.67 84.65 11/30/2019 03:15:43 -73.82, -54.71 84.67 3.18 32
3 12/02/2019 21:59:59 73.80,-155.77 95.74 12/02/2019 21:59:27 73.77,-155.76 95.71 3.60 32
4 12/02/2019 22:49:25 -73.83, 11.81 84.23 12/02/2019 22:50:07 -73.84, 11.75 84.21 2.53 42
5 12/05/2019 16:44:32 -73.09, 104.54 84.61 12/05/2019 16:43:26 -73.03, 101.65 84.61 93.73 66
6 12/05/2019 17:34:13 73.79, -89.29 96.12 12/05/2019 17:33:51 73.79, -89.31 96.12 0.59 22
7 12/05/2019 18:23:40 -73.87, 78.17 83.80 12/05/2019 18:24:31 -73.86, 78.20 83.81 1.16 51
8 12/08/2019 12:18:53 -73.45, 170.24 83.91 12/08/2019 12:17:43 -73.40, 168.87 83.93 43.96 70
9 12/08/2019 13:08:26 73.78, -22.83 96.44 12/08/2019 13:08:14 73.80, -22.87 96.46 2.63 12
10 12/08/2019 13:57:53 -73.86, 144.63 83.48 12/08/2019 13:58:54 -73.88, 144.64 83.47 1.84 61
11 12/11/2019 07:53:12 -73.76,-123.98 83.32 12/11/2019 07:51:59 -73.76,-123.89 83.31 2.95 73
12 12/11/2019 08:42:41 73.83, 43.50 96.76 12/11/2019 08:42:38 73.81, 43.56 96.74 2.81 3




NCC Satellite Simultaneous Nadir Overpasses (SNOs) Prediction Service
